1516910401.11,55334,9.63,73732.3,-2.31,-28.43,-28.53,0,*55
1516910402.35,55335,9.63,73734.0,-2.31,-28.59,-28.69,0,*56
1516910403.6,55336,9.63,73728.3,-2.31,-28.53,-28.59,0,*5C
1516910404.84,55337,9.63,73726.5,-2.31,-28.59,-28.69,0,*54
1516910406.08,55338,9.63,73726.8,-2.31,-28.91,-28.85,0,*5D
1516910407.35,55339,9.56,73720.8,-2.31,-29.01,-28.91,0,*51
1516910408.59,55340,9.63,73716.8,-2.31,-28.75,-28.85,0,*58
1516910409.85,55341,9.63,73724.0,-2.31,-28.91,-28.75,0,*5C
1516910411.12,55342,9.56,73732.0,-2.31,-28.91,-29.01,0,*5D
1516910412.38,55343,9.56,73732.8,-2.33,-28.97,-28.91,0,*50
1516910413.61,55344,9.63,73734.3,-2.31,-28.69,-28.75,0,*5E
1516910414.84,55345,9.56,73728.8,-2.31,-28.85,-28.85,0,*52
1516910416.1,55346,9.63,73728.0,-2.31,-28.91,-28.75,0,*5B
1516910417.34,55347,9.63,73730.5,-2.31,-29.01,-28.85,0,*5D
1516910418.61,55348,9.63,73732.8,-2.33,-29.07,-28.91,0,*53
1516910419.89,55349,9.56,73730.5,-2.33,-28.79,-28.91,0,*5A
1516910421.18,55350,9.63,73732.0,-2.33,-28.63,-28.75,0,*53
1516910422.46,55351,9.63,73730.8,-2.33,-28.79,-28.75,0,*59
1516910423.74,55352,9.56,73726.3,-2.33,-28.91,-28.79,0,*50
1516910425.03,55353,9.63,73728.3,-2.33,-28.91,-28.79,0,*51
1516910426.32,55354,9.56,73728.3,-2.33,-28.91,-28.79,0,*56
1516910427.58,55355,9.63,73734.5,-2.35,-28.91,-28.91,0,*57
1516910428.86,55356,9.63,73734.8,-2.33,-28.79,-28.75,0,*5E
1516910430.14,55357,9.63,73734.3,-2.33,-28.75,-28.75,0,*53
1516910431.42,55358,9.63,73732.3,-2.33,-28.47,-28.43,0,*58
1516910432.66,55359,9.63,73728.0,-2.33,-28.37,-28.37,0,*5D
1516910433.94,55360,9.63,73730.0,-2.33,-28.47,-28.59,0,*58
1516910435.23,55361,9.56,73730.3,-2.33,-28.63,-28.59,0,*5F
1516910436.51,55362,9.56,73728.8,-2.33,-28.75,-28.75,0,*55
1516910437.79,55363,9.56,73730.0,-2.33,-28.75,-28.75,0,*54
1516910439.08,55364,9.63,73736.0,-2.33,-28.63,-28.63,0,*53
1516910440.36,55365,9.56,73730.5,-2.33,-28.59,-28.75,0,*5C
1516910441.64,55366,9.63,73728.3,-2.33,-28.75,-28.75,0,*51
1516910442.92,55367,9.63,73730.3,-2.33,-28.75,-28.75,0,*50
1516910444.21,55368,9.63,73728.3,-2.33,-28.75,-28.63,0,*58
1516910445.49,55369,9.63,73728.0,-2.33,-28.79,-28.79,0,*5E
1516910446.77,55370,9.63,73724.3,-2.33,-28.75,-28.79,0,*5A
1516910448.05,55371,9.63,73722.5,-2.33,-28.75,-28.75,0,*57
1516910449.33,55372,9.56,73716.8,-2.33,-28.75,-28.79,0,*58
1516910450.62,55373,9.63,73716.0,-2.33,-28.75,-28.63,0,*52
1516910451.9,55374,9.56,73714.5,-2.33,-28.75,-28.75,0,*52
1516910453.12,55375,9.56,73712.3,-2.31,-28.85,-28.85,0,*51
1516910454.38,55376,9.56,73706.8,-2.33,-28.97,-28.91,0,*56
1516910455.67,55377,9.56,73706.0,-2.33,-28.91,-28.91,0,*51
1516910456.88,55378,9.63,73710.5,-2.35,-29.07,-28.97,0,*50
1516910458.17,55379,9.56,73710.0,-2.33,-28.91,-28.79,0,*59
1516910459.42,55380,9.63,73716.8,-2.33,-28.97,-28.79,0,*59
1516910460.68,55381,9.56,73714.3,-2.33,-28.97,-28.91,0,*5E
1516910461.95,55382,9.63,73712.3,-2.33,-29.07,-28.91,0,*55
1516910463.24,55383,9.56,73712.0,-2.37,-29.01,-29.01,0,*5E
1516910464.51,55384,9.63,73722.8,-2.37,-29.13,-29.13,0,*59
1516910465.81,55385,9.56,73722.8,-2.37,-29.01,-28.91,0,*50
1516910467.04,55386,9.63,73720.8,-2.35,-28.97,-28.79,0,*59
1516910468.24,55387,9.56,73720.0,-2.35,-29.07,-29.07,0,*58
1516910469.45,55388,9.56,73720.5,-2.35,-29.07,-28.97,0,*5F
1516910470.71,55389,9.63,73722.8,-2.35,-28.91,-28.79,0,*50
1516910471.94,55390,9.63,73726.0,-2.35,-28.91,-28.97,0,*58
1516910473.23,55391,9.63,73730.5,-2.37,-29.01,-29.01,0,*5D
1516910474.51,55392,9.63,73728.8,-2.37,-29.13,-29.13,0,*5E
1516910475.74,55393,9.63,73732.0,-2.35,-28.97,-28.79,0,*5D
1516910477.0,55394,9.63,73728.3,-2.37,-28.63,-28.69,0,*52
1516910478.3,55395,9.63,73730.0,-2.37,-28.63,-28.63,0,*59
1516910479.55,55396,9.63,73728.5,-2.35,-28.47,-28.43,0,*5C
1516910480.83,55397,9.63,73730.3,-2.37,-28.47,-28.43,0,*5F
1516910482.07,55398,9.63,73730.0,-2.37,-28.15,-28.15,0,*54
1516910483.36,55399,9.63,73730.8,-2.37,-27.99,-27.83,0,*5E
1516910484.56,55400,9.63,73730.3,-2.35,-27.89,-27.77,0,*51
1516910485.77,55401,9.56,73730.5,-2.35,-27.89,-27.77,0,*50
1516910487.03,55402,9.63,73732.0,-2.33,-27.77,-27.61,0,*53
1516910488.33,55403,9.56,73730.3,-2.33,-27.61,-27.61,0,*55
1516910489.59,55404,9.56,73734.5,-2.33,-27.55,-27.45,0,*53
1516910490.82,55405,9.56,73728.3,-2.31,-27.55,-27.45,0,*50
1516910492.03,55406,9.56,73732.8,-2.31,-27.55,-27.51,0,*56
1516910493.27,55407,9.56,73734.0,-2.31,-27.51,-27.39,0,*5D
1516910494.51,55408,9.56,73732.3,-2.27,-27.67,-27.61,0,*5D
1516910495.77,55409,9.56,73728.5,-2.29,-28.15,-28.05,0,*55
1516910497.01,55410,9.63,73726.0,-2.27,-28.25,-28.15,0,*51
1516910498.25,55411,9.56,73724.0,-2.27,-28.15,-28.25,0,*50
1516910499.48,55412,9.56,73730.0,-2.27,-28.15,-28.09,0,*5D
1516910500.75,55413,9.56,73724.0,-2.27,-28.09,-27.99,0,*57
1516910502.01,55414,9.56,73726.8,-2.27,-28.09,-27.99,0,*50
1516910503.27,55415,9.56,73730.3,-2.27,-28.09,-28.09,0,*57
1516910504.56,55416,9.63,73732.0,-2.29,-28.05,-27.99,0,*50
1516910505.77,55417,9.63,73732.3,-2.27,-27.93,-27.93,0,*55
1516910506.98,55418,9.56,73728.3,-2.23,-27.93,-27.77,0,*54
1516910508.24,55419,9.56,73724.3,-2.23,-28.09,-28.09,0,*5F
1516910509.5,55420,9.63,73726.3,-2.23,-28.09,-28.09,0,*55
1516910510.79,55421,9.63,73722.8,-2.21,-28.21,-28.21,0,*56
1516910512.06,55422,9.63,73722.0,-2.23,-28.25,-28.25,0,*57
1516910513.29,55423,9.63,73718.0,-2.23,-28.47,-28.31,0,*57
1516910514.57,55424,9.63,73718.5,-2.21,-28.43,-28.47,0,*57
1516910515.85,55425,9.56,73710.8,-2.21,-28.47,-28.47,0,*52
1516910517.12,55426,9.56,73714.3,-2.23,-28.63,-28.63,0,*53
1516910518.38,55427,9.56,73716.3,-2.21,-28.63,-28.69,0,*5A
1516910519.67,55428,9.56,73720.3,-2.21,-28.25,-28.21,0,*5B
1516910520.92,55429,9.56,73726.0,-2.21,-28.09,-27.93,0,*52
1516910522.18,55430,9.56,73724.0,-2.21,-28.09,-27.77,0,*50
1516910523.41,55431,9.63,73724.0,-2.21,-27.77,-27.71,0,*51
1516910524.67,55432,9.63,73726.8,-2.21,-27.77,-27.61,0,*53
1516910525.91,55433,9.56,73726.3,-2.19,-27.77,-27.61,0,*59
1516910527.14,55434,9.56,73726.8,-2.17,-27.67,-27.67,0,*57
1516910528.37,55435,9.63,73724.8,-2.17,-27.67,-27.55,0,*57
1516910529.58,55436,9.63,73726.8,-2.19,-27.67,-27.55,0,*5A
1516910530.81,55437,9.63,73730.8,-2.17,-27.67,-27.55,0,*55
1516910532.02,55438,9.63,73728.3,-2.19,-27.77,-27.71,0,*53
1516910533.25,55439,9.63,73728.8,-2.17,-27.71,-27.67,0,*5D
1516910534.5,55440,9.56,73730.8,-2.17,-27.83,-27.67,0,*5E
1516910535.73,55441,9.56,73730.0,-2.17,-27.89,-27.67,0,*55
1516910536.97,55442,9.56,73726.3,-2.17,-27.71,-27.67,0,*51
1516910538.23,55443,9.63,73726.5,-2.15,-27.99,-27.83,0,*5E
1516910539.49,55444,9.56,73724.0,-2.13,-27.61,-27.51,0,*57
1516910540.7,55445,9.56,73726.5,-2.15,-27.67,-27.67,0,*53
1516910541.94,55446,9.56,73728.5,-2.13,-27.67,-27.67,0,*56
1516910543.17,55447,9.56,73726.0,-2.13,-27.77,-27.67,0,*56
1516910544.45,55448,9.56,73730.0,-2.11,-27.45,-27.45,0,*5A
1516910545.71,55449,9.63,73734.8,-2.11,-27.39,-27.29,0,*5A
1516910547.0,55450,9.63,73734.8,-2.11,-27.61,-27.45,0,*55
1516910548.23,55451,9.63,73734.5,-2.11,-27.89,-27.71,0,*55
1516910549.46,55452,9.63,73732.0,-2.11,-27.71,-27.55,0,*57
1516910550.66,55453,9.63,73726.0,-2.09,-27.77,-27.77,0,*59
1516910551.86,55454,9.56,73728.5,-2.09,-27.89,-27.77,0,*5F
1516910553.07,55455,9.56,73730.5,-2.09,-27.93,-27.89,0,*54
1516910554.33,55456,9.56,73728.0,-2.09,-28.09,-28.05,0,*50
1516910555.58,55457,9.63,73726.0,-2.09,-28.43,-28.43,0,*5D
1516910556.82,55458,9.56,73720.5,-2.09,-28.25,-28.31,0,*57
1516910558.05,55459,9.63,73726.5,-2.09,-28.31,-28.43,0,*56
1516910559.3,55460,9.56,73716.5,-2.09,-28.47,-28.43,0,*5D
1516910560.55,55461,9.56,73722.3,-2.09,-28.43,-28.47,0,*5C
1516910561.82,55462,9.63,73718.3,-2.11,-28.47,-28.47,0,*52
1516910563.08,55463,9.63,73720.5,-2.09,-28.59,-28.59,0,*5A
1516910564.36,55464,9.63,73716.8,-2.11,-28.25,-28.43,0,*54
1516910565.61,55465,9.63,73714.5,-2.09,-28.47,-28.47,0,*5C
1516910566.86,55466,9.56,73714.3,-2.09,-28.47,-28.47,0,*5F
1516910568.14,55467,9.56,73718.8,-2.11,-28.59,-28.47,0,*58
1516910569.42,55468,9.63,73716.0,-2.11,-28.63,-28.47,0,*5E
1516910570.66,55469,9.63,73714.8,-2.07,-28.53,-28.53,0,*5E
1516910571.94,55470,9.56,73706.5,-2.11,-28.75,-28.75,0,*51
1516910573.18,55471,9.63,73708.0,-2.09,-28.75,-28.79,0,*55
1516910574.46,55472,9.56,73706.0,-2.11,-28.79,-28.79,0,*53
1516910575.71,55473,9.56,73704.8,-2.09,-28.79,-28.79,0,*5B
1516910576.97,55474,9.63,73712.8,-2.09,-28.79,-28.63,0,*57
1516910578.25,55475,9.56,73718.3,-2.11,-28.47,-28.47,0,*54
1516910579.48,55476,9.56,73722.0,-2.11,-28.31,-28.31,0,*57
1516910580.71,55477,9.56,73718.8,-2.11,-27.71,-27.55,0,*50
1516910581.97,55478,9.56,73712.8,-2.09,-27.39,-27.39,0,*50
1516910583.17,55479,9.56,73716.5,-2.09,-27.89,-27.55,0,*50
1516910584.42,55480,9.63,73722.3,-2.09,-28.43,-28.43,0,*57
1516910585.68,55481,9.56,73716.8,-2.09,-28.25,-28.09,0,*58
1516910586.91,55482,9.63,73720.8,-2.09,-28.09,-27.93,0,*59
1516910588.2,55483,9.63,73718.0,-2.07,-28.05,-27.99,0,*50
1516910589.41,55484,9.63,73722.8,-2.09,-27.93,-27.77,0,*59
1516910590.64,55485,9.56,73720.0,-2.07,-27.89,-27.71,0,*5B
1516910591.87,55486,9.63,73722.5,-2.07,-27.89,-27.71,0,*58
1516910593.1,55487,9.63,73722.3,-2.05,-27.89,-27.83,0,*56
1516910594.34,55488,9.63,73718.3,-2.05,-27.89,-27.83,0,*59
1516910595.57,55489,9.56,73722.3,-2.07,-27.89,-27.71,0,*57
1516910596.8,55490,9.56,73722.0,-2.05,-27.83,-27.67,0,*50
1516910598.03,55491,9.56,73720.8,-2.05,-27.83,-27.71,0,*56
1516910599.24,55492,9.56,73722.3,-2.05,-27.55,-27.55,0,*58
1516910600.45,55493,9.56,73724.8,-2.05,-27.67,-27.51,0,*5C
1516910601.68,55494,9.56,73724.0,-2.01,-27.51,-27.35,0,*58
1516910602.91,55495,9.56,73726.0,-2.01,-27.51,-27.35,0,*59
1516910604.16,55496,9.56,73730.0,-2.01,-27.45,-27.45,0,*58
1516910605.42,55497,9.56,73732.5,-2.01,-27.61,-27.45,0,*5F
1516910606.7,55498,9.63,73728.8,-1.99,-27.61,-27.45,0,*52
1516910607.93,55499,9.63,73732.3,-1.97,-27.71,-27.61,0,*5A
1516910609.15,55500,9.56,73734.0,-1.97,-27.55,-27.45,0,*5B
1516910610.35,55501,9.56,73732.8,-1.97,-27.71,-27.55,0,*5D
1516910611.61,55502,9.63,73732.0,-1.95,-27.71,-27.61,0,*5B
1516910612.82,55503,9.56,73728.8,-1.97,-27.71,-27.71,0,*59
1516910614.04,55504,9.63,73732.0,-1.95,-27.93,-27.93,0,*5C
1516910615.33,55505,9.56,73734.0,-1.95,-27.99,-28.09,0,*5B
1516910616.55,55506,9.56,73728.8,-1.97,-27.93,-28.09,0,*50
1516910617.78,55507,9.56,73730.5,-1.95,-27.93,-27.93,0,*5F
1516910619.04,55508,9.56,73730.5,-1.95,-27.99,-27.93,0,*5A
1516910620.26,55509,9.56,73730.0,-1.97,-27.99,-27.93,0,*59
1516910621.49,55510,9.56,73732.5,-1.95,-27.93,-27.93,0,*59
1516910622.72,55511,9.56,73732.3,-1.95,-27.93,-27.93,0,*58
1516910623.98,55512,9.56,73734.3,-1.95,-27.99,-27.93,0,*51
1516910625.26,55513,9.56,73730.8,-1.95,-28.09,-28.09,0,*5A
1516910626.52,55514,9.63,73728.5,-1.95,-28.31,-28.25,0,*58
1516910627.78,55515,9.56,73724.3,-1.93,-28.25,-28.21,0,*5E
1516910629.01,55516,9.63,73724.8,-1.93,-28.59,-28.53,0,*53
1516910630.24,55517,9.56,73722.3,-1.93,-28.59,-28.53,0,*52
1516910631.53,55518,9.63,73724.0,-1.95,-28.59,-28.59,0,*51
1516910632.81,55519,9.56,73724.0,-1.95,-28.59,-28.47,0,*5F
1516910634.05,55520,9.56,73728.3,-1.97,-28.47,-28.43,0,*5C
1516910635.31,55521,9.56,73732.8,-1.95,-27.99,-27.89,0,*5A
1516910636.57,55522,9.63,73728.5,-1.95,-27.45,-27.29,0,*52
1516910637.83,55523,9.63,73726.8,-1.95,-27.71,-27.61,0,*58
1516910639.06,55524,9.63,73722.8,-1.95,-27.71,-27.77,0,*58
1516910640.31,55525,9.56,73720.0,-1.95,-28.09,-27.93,0,*53
1516910641.57,55526,9.63,73734.5,-1.93,-28.05,-28.09,0,*56
1516910642.86,55527,9.63,73730.0,-1.91,-28.21,-28.21,0,*59
1516910644.15,55528,9.63,73734.8,-1.91,-28.09,-28.21,0,*5C
1516910645.4,55529,9.56,73728.5,-1.93,-28.05,-28.09,0,*59
1516910646.64,55530,9.63,73734.5,-1.91,-27.93,-27.89,0,*54
1516910647.85,55531,9.63,73726.3,-1.93,-27.71,-27.67,0,*5B
1516910649.14,55532,9.56,73720.3,-1.91,-28.21,-28.21,0,*5D
1516910650.42,55533,9.63,73722.0,-1.91,-28.25,-28.25,0,*5C
1516910651.68,55534,9.63,73720.3,-1.93,-28.59,-28.59,0,*59
1516910652.97,55535,9.63,73708.5,-1.91,-28.59,-28.59,0,*5A
1516910654.2,55536,9.63,73718.8,-1.93,-28.75,-28.85,0,*54
1516910655.46,55537,9.63,73716.0,-1.93,-28.59,-28.59,0,*5A
1516910656.71,55538,9.63,73718.5,-1.91,-28.69,-28.75,0,*5A
1516910657.96,55539,9.56,73720.5,-1.93,-28.43,-28.43,0,*54
1516910659.24,55540,9.63,73720.0,-1.91,-28.09,-28.21,0,*52
1516910660.5,55541,9.63,73726.5,-1.93,-28.05,-28.09,0,*57
1516910661.73,55542,9.63,73728.5,-1.95,-27.89,-27.89,0,*5E
1516910663.01,55543,9.63,73732.0,-1.91,-27.83,-27.83,0,*5B
1516910664.26,55544,9.56,73728.3,-1.93,-27.83,-27.83,0,*5E
1516910665.49,55545,9.56,73730.8,-1.91,-27.71,-27.71,0,*5D
1516910666.77,55546,9.56,73730.0,-1.91,-27.83,-27.83,0,*5E
1516910668.06,55547,9.63,73730.5,-1.91,-28.05,-28.05,0,*5F
1516910669.33,55548,9.56,73718.8,-1.87,-27.99,-28.09,0,*51
1516910670.54,55549,9.63,73716.5,-1.89,-28.15,-28.15,0,*58
1516910671.83,55550,9.63,73716.3,-1.91,-28.21,-28.21,0,*59
1516910673.04,55551,9.63,73716.5,-1.89,-28.15,-28.15,0,*51
1516910674.25,55552,9.63,73718.5,-1.89,-28.31,-28.31,0,*52
1516910675.48,55553,9.63,73712.0,-1.89,-28.31,-28.21,0,*52
1516910676.69,55554,9.63,73706.0,-1.89,-28.31,-28.37,0,*52
1516910677.92,55555,9.63,73692.5,-1.89,-28.53,-28.63,0,*56
1516910679.17,55556,9.63,73692.5,-1.91,-28.69,-28.75,0,*52
1516910680.4,55557,9.63,73708.0,-1.91,-28.69,-28.69,0,*5E
1516910681.64,55558,9.63,73710.0,-1.91,-28.85,-28.97,0,*52
1516910682.87,55559,9.63,73712.8,-1.93,-28.85,-28.91,0,*57
1516910684.12,55560,9.63,73716.0,-1.91,-28.69,-28.75,0,*57
1516910685.36,55561,9.63,73716.3,-1.91,-28.69,-28.85,0,*59
1516910686.61,55562,9.56,73718.8,-1.91,-28.69,-28.75,0,*55
1516910687.84,55563,9.63,73728.8,-1.93,-28.59,-28.69,0,*58
1516910689.07,55564,9.56,73726.8,-1.93,-28.59,-28.69,0,*5F
1516910690.29,55565,9.56,73724.5,-1.93,-28.69,-28.75,0,*50
1516910691.52,55566,9.63,73722.5,-1.93,-28.69,-28.59,0,*5D
1516910692.77,55567,9.56,73718.3,-1.91,-28.69,-28.75,0,*50
1516910694.01,55568,9.63,73724.3,-1.93,-28.69,-28.59,0,*53
1516910695.24,55569,9.56,73724.0,-1.93,-28.69,-28.59,0,*52
1516910696.46,55570,9.63,73724.5,-1.93,-28.69,-28.75,0,*54
1516910697.72,55571,9.56,73726.5,-1.93,-28.59,-28.59,0,*58
1516910698.97,55572,9.56,73724.3,-1.95,-28.31,-28.43,0,*58
1516910700.21,55573,9.56,73716.8,-1.95,-28.31,-28.31,0,*5C
1516910701.48,55574,9.56,73718.8,-1.95,-28.63,-28.75,0,*5C
1516910702.74,55575,9.56,73718.3,-1.93,-28.59,-28.59,0,*5C
1516910703.97,55576,9.63,73724.3,-1.93,-28.59,-28.69,0,*5C
1516910705.19,55577,9.63,73722.8,-1.93,-28.69,-28.75,0,*53
1516910706.43,55578,9.56,73720.0,-1.93,-28.75,-28.85,0,*5E
1516910707.66,55579,9.63,73726.3,-1.93,-28.85,-28.91,0,*55
1516910708.89,55580,9.56,73722.8,-1.93,-28.75,-28.85,0,*59
1516910710.18,55581,9.63,73720.0,-1.95,-28.91,-28.91,0,*51
1516910711.4,55582,9.63,73726.5,-1.97,-28.79,-28.97,0,*50
1516910712.61,55583,9.63,73724.0,-1.93,-28.53,-28.53,0,*55
1516910713.9,55584,9.56,73720.3,-1.95,-28.59,-28.59,0,*54
1516910715.15,55585,9.63,73724.3,-1.97,-28.63,-28.63,0,*57
1516910716.44,55586,9.56,73722.5,-1.95,-28.75,-28.63,0,*51
1516910717.72,55587,9.56,73726.0,-1.95,-28.79,-28.75,0,*5B
1516910718.97,55588,9.56,73722.8,-1.97,-28.91,-28.91,0,*5A
1516910720.23,55589,9.56,73724.8,-1.97,-28.79,-28.91,0,*5D
1516910721.51,55590,9.56,73722.3,-1.95,-28.75,-28.91,0,*5B
1516910722.76,55591,9.63,73726.3,-1.97,-28.75,-28.63,0,*55
1516910724.01,55592,9.63,73732.0,-1.97,-28.43,-28.43,0,*51
1516910725.25,55593,9.63,73730.8,-1.97,-28.25,-28.15,0,*53
1516910726.45,55594,9.63,73730.3,-1.97,-27.93,-27.93,0,*57
1516910727.68,55595,9.56,73728.0,-1.95,-27.93,-27.93,0,*54
1516910728.91,55596,9.63,73734.8,-1.95,-27.77,-27.89,0,*56
1516910730.14,55597,9.56,73730.8,-1.95,-27.93,-27.93,0,*56
1516910731.42,55598,9.63,73732.3,-1.95,-27.99,-28.09,0,*5F
1516910732.68,55599,9.56,73728.8,-1.95,-27.93,-28.09,0,*54
1516910733.91,55600,9.63,73738.5,-1.95,-27.89,-27.93,0,*50
1516910735.11,55601,9.63,73728.3,-1.93,-27.93,-27.89,0,*57
1516910736.38,55602,9.63,73726.0,-1.93,-28.05,-28.21,0,*59
1516910737.63,55603,9.56,73726.5,-1.91,-27.89,-28.09,0,*5B
1516910738.91,55604,9.56,73726.3,-1.91,-28.43,-28.43,0,*5B
1516910740.19,55605,9.63,73728.0,-1.91,-28.43,-28.43,0,*5A
1516910741.45,55606,9.56,73720.3,-1.91,-28.53,-28.43,0,*58
1516910742.68,55607,9.63,73726.0,-1.93,-28.59,-28.69,0,*59
1516910743.93,55608,9.63,73728.0,-1.91,-28.69,-28.75,0,*5A
1516910745.21,55609,9.63,73728.8,-1.91,-28.59,-28.59,0,*56
1516910746.5,55610,9.63,73730.0,-1.91,-28.09,-28.21,0,*54
1516910747.76,55611,9.63,73726.3,-1.91,-27.89,-28.05,0,*54
1516910749.02,55612,9.63,73724.3,-1.91,-27.93,-28.21,0,*5A
1516910750.28,55613,9.63,73728.8,-1.91,-28.37,-28.25,0,*5E
1516910751.51,55614,9.56,73724.5,-1.93,-28.43,-28.53,0,*59
1516910752.79,55615,9.56,73722.8,-1.91,-28.59,-28.75,0,*55
1516910754.07,55616,9.56,73722.5,-1.91,-28.59,-28.75,0,*56
1516910755.29,55617,9.63,73714.0,-1.93,-28.75,-28.97,0,*57
1516910756.5,55618,9.56,73710.0,-1.93,-28.69,-28.85,0,*56
1516910757.72,55619,9.56,73718.3,-1.93,-28.75,-28.97,0,*59
1516910758.93,55620,9.56,73720.5,-1.93,-28.69,-28.69,0,*5F
1516910760.2,55621,9.56,73722.8,-1.95,-28.75,-28.75,0,*58
1516910761.45,55622,9.56,73722.5,-1.95,-28.75,-28.97,0,*57
1516910762.7,55623,9.56,73722.3,-1.91,-28.75,-28.97,0,*52
1516910763.99,55624,9.56,73724.0,-1.95,-28.91,-29.01,0,*55
1516910765.24,55625,9.63,73726.5,-1.95,-28.75,-28.97,0,*50
1516910766.52,55626,9.56,73724.8,-1.95,-28.91,-29.01,0,*57
1516910767.77,55627,9.63,73730.5,-1.95,-28.97,-29.13,0,*53
1516910769.03,55628,9.63,73730.3,-1.95,-28.97,-29.01,0,*5F
1516910770.28,55629,9.63,73726.3,-1.97,-28.75,-29.01,0,*50
1516910771.55,55630,9.56,73720.3,-1.95,-28.91,-29.13,0,*53
1516910772.83,55631,9.56,73724.5,-1.95,-28.91,-29.13,0,*52
1516910774.09,55632,9.63,73732.0,-1.97,-28.91,-29.01,0,*50
1516910775.35,55633,9.63,73732.0,-1.97,-28.91,-29.01,0,*51
1516910776.57,55634,9.56,73732.8,-1.97,-28.97,-29.01,0,*50
1516910777.82,55635,9.63,73738.0,-1.97,-28.91,-29.13,0,*54
1516910779.04,55636,9.56,73738.8,-1.97,-28.97,-29.13,0,*51
1516910780.3,55637,9.63,73738.0,-1.97,-28.91,-29.01,0,*55
1516910781.55,55638,9.56,73736.8,-1.99,-29.01,-29.07,0,*5A
1516910782.8,55639,9.63,73738.8,-1.97,-28.79,-29.01,0,*5D
1516910784.05,55640,9.63,73736.3,-1.99,-28.79,-29.07,0,*5B
1516910785.29,55641,9.63,73738.5,-1.99,-28.69,-28.85,0,*50
1516910786.52,55642,9.56,73730.8,-1.99,-28.69,-28.97,0,*50
1516910787.77,55643,9.63,73736.8,-1.99,-28.79,-28.97,0,*50
1516910789.02,55644,9.63,73734.3,-1.99,-28.79,-28.97,0,*57
1516910790.25,55645,9.56,73734.0,-2.01,-28.79,-28.97,0,*54
1516910791.51,55646,9.56,73734.5,-1.99,-28.69,-29.01,0,*5A
1516910792.79,55647,9.56,73734.3,-1.99,-29.01,-29.17,0,*53
1516910793.98,55648,9.63,73736.3,-2.01,-28.97,-29.07,0,*51
1516910795.19,55649,9.56,73736.3,-2.01,-28.85,-29.07,0,*53
1516910796.47,55650,9.63,73738.5,-1.99,-28.79,-29.01,0,*5C
1516910797.69,55651,9.63,73740.5,-2.01,-28.79,-29.07,0,*59
1516910798.89,55652,9.63,73738.8,-2.01,-28.85,-29.07,0,*59
1516910800.1,55653,9.56,73738.0,-2.01,-28.85,-29.07,0,*58
1516910801.32,55654,9.63,73738.0,-2.01,-28.85,-29.17,0,*5E
1516910802.58,55655,9.63,73732.8,-2.01,-29.01,-29.17,0,*52
1516910803.8,55656,9.56,73734.0,-2.01,-29.01,-29.23,0,*56
1516910805.03,55657,9.63,73736.3,-2.05,-29.07,-29.29,0,*5F
1516910806.26,55658,9.56,73736.0,-2.05,-29.07,-29.29,0,*50
1516910807.48,55659,9.56,73734.3,-2.05,-29.07,-29.29,0,*51
1516910808.71,55660,9.56,73736.5,-2.05,-29.07,-29.29,0,*5B
1516910809.97,55661,9.56,73732.0,-2.05,-29.01,-29.29,0,*5C
1516910811.25,55662,9.63,73738.0,-2.07,-29.01,-29.29,0,*5D
1516910812.48,55663,9.56,73732.0,-2.07,-29.07,-29.23,0,*50
1516910813.73,55664,9.56,73734.0,-2.07,-29.07,-29.29,0,*5D
1516910814.99,55665,9.56,73732.3,-2.07,-29.07,-29.29,0,*5C
1516910816.24,55666,9.56,73730.5,-2.07,-29.07,-29.29,0,*5F
1516910817.49,55667,9.56,73732.8,-2.07,-29.07,-29.29,0,*5E
1516910818.72,55668,9.56,73732.5,-2.07,-29.07,-29.23,0,*5B
1516910819.98,55669,9.56,73732.8,-2.09,-29.17,-29.35,0,*52
1516910821.24,55670,9.63,73732.8,-2.11,-29.17,-29.45,0,*54
1516910822.49,55671,9.63,73734.0,-2.09,-29.13,-29.29,0,*52
1516910823.72,55672,9.63,73738.3,-2.09,-29.07,-29.35,0,*59
1516910825.0,55673,9.63,73736.0,-2.11,-29.13,-29.35,0,*54
1516910826.25,55674,9.56,73734.0,-2.11,-29.07,-29.29,0,*5B
1516910827.5,55675,9.63,73732.0,-2.11,-29.07,-29.29,0,*5A
1516910828.75,55676,9.56,73730.0,-2.11,-28.97,-29.29,0,*51
1516910830.0,55677,9.56,73724.5,-2.11,-28.97,-29.29,0,*50
1516910831.26,55678,9.63,73728.5,-2.11,-29.07,-29.35,0,*5A
1516910832.54,55679,9.63,73732.8,-2.11,-29.13,-29.29,0,*53
1516910833.79,55680,9.56,73726.5,-2.13,-29.01,-29.23,0,*5E
1516910835.05,55681,9.63,73728.3,-2.15,-29.01,-29.39,0,*52
1516910836.32,55682,9.56,73734.3,-2.13,-29.01,-29.29,0,*56
1516910837.55,55683,9.63,73728.5,-2.13,-28.97,-29.23,0,*53
1516910838.8,55684,9.63,73728.3,-2.15,-29.01,-29.17,0,*5B
1516910840.06,55685,9.56,73728.5,-2.13,-28.85,-29.17,0,*51
1516910841.34,55686,9.56,73734.3,-2.13,-29.01,-29.17,0,*5F
1516910842.57,55687,9.63,73736.0,-2.15,-29.01,-29.23,0,*5F
1516910843.84,55688,9.56,73732.3,-2.13,-28.79,-29.13,0,*5B
1516910845.05,55689,9.56,73734.3,-2.15,-28.85,-29.07,0,*5A
1516910846.26,55690,9.56,73730.0,-2.15,-28.85,-29.07,0,*52
1516910847.49,55691,9.63,73730.3,-2.15,-28.91,-29.23,0,*50
1516910848.73,55692,9.56,73732.0,-2.15,-28.91,-29.23,0,*53
1516910849.98,55693,9.63,73734.0,-2.15,-29.01,-29.29,0,*50
1516910851.19,55694,9.63,73734.3,-2.15,-29.07,-29.23,0,*5B
1516910852.41,55695,9.56,73728.5,-2.13,-28.97,-29.23,0,*54
1516910853.64,55696,9.56,73724.5,-2.15,-29.07,-29.29,0,*53
1516910854.89,55697,9.63,73730.3,-2.15,-29.01,-29.29,0,*54
1516910856.15,55698,9.63,73732.3,-2.15,-29.01,-29.29,0,*5B
1516910857.37,55699,9.56,73728.0,-2.17,-28.85,-29.07,0,*59
1516910858.6,55700,9.56,73728.5,-2.19,-28.97,-29.29,0,*59
1516910859.85,55701,9.56,73734.0,-2.17,-28.91,-29.23,0,*5A
1516910861.05,55702,9.56,73732.3,-2.19,-29.07,-29.23,0,*59
1516910862.26,55703,9.56,73734.8,-2.15,-28.85,-29.07,0,*59
1516910863.51,55704,9.56,73736.3,-2.19,-28.91,-29.13,0,*52
1516910864.75,55705,9.56,73738.3,-2.17,-28.75,-29.07,0,*52
1516910866.0,55706,9.63,73740.0,-2.17,-28.69,-28.75,0,*58
1516910867.26,55707,9.56,73736.3,-2.19,-28.75,-28.91,0,*50
1516910868.51,55708,9.56,73738.3,-2.17,-28.85,-29.17,0,*51
1516910869.73,55709,9.63,73738.0,-2.19,-28.97,-29.29,0,*50
1516910870.98,55710,9.63,73738.5,-2.19,-28.91,-29.13,0,*57
1516910872.23,55711,9.56,73738.3,-2.19,-28.91,-29.13,0,*56
1516910873.49,55712,9.63,73738.3,-2.19,-28.91,-29.29,0,*5C
1516910874.68,55713,9.63,73738.8,-2.19,-29.07,-29.23,0,*59
1516910875.88,55714,9.56,73736.3,-2.19,-29.07,-29.23,0,*5E
1516910877.13,55715,9.63,73736.8,-2.19,-28.91,-29.29,0,*5B
1516910878.38,55716,9.56,73738.5,-2.17,-28.75,-29.07,0,*50
1516910879.61,55717,9.63,73738.8,-2.17,-28.85,-29.07,0,*5E
1516910880.86,55718,9.63,73738.3,-2.17,-28.85,-29.17,0,*50
1516910882.09,55719,9.63,73736.5,-2.19,-28.91,-29.23,0,*5D
1516910883.31,55720,9.56,73732.8,-2.19,-28.97,-29.29,0,*5B
1516910884.56,55721,9.63,73734.8,-2.19,-28.91,-29.13,0,*55
1516910885.84,55722,9.56,73734.5,-2.21,-28.79,-29.13,0,*5B
1516910887.12,55723,9.56,73732.3,-2.21,-28.79,-29.13,0,*5A
1516910888.35,55724,9.56,73734.5,-2.23,-28.85,-29.17,0,*58
1516910889.61,55725,9.56,73734.0,-2.23,-28.79,-29.13,0,*5E
1516910890.86,55726,9.56,73728.0,-2.21,-28.63,-29.07,0,*51
1516910892.13,55727,9.56,73728.0,-2.21,-28.75,-29.13,0,*52
1516910893.39,55728,9.56,73728.0,-2.21,-28.91,-29.23,0,*54
1516910894.67,55729,9.56,73724.0,-2.21,-28.91,-29.13,0,*56
1516910895.9,55730,9.63,73730.0,-2.23,-28.85,-29.29,0,*50
1516910897.15,55731,9.56,73724.3,-2.21,-28.97,-29.13,0,*59
1516910898.38,55732,9.56,73724.5,-2.23,-28.97,-29.29,0,*51
1516910899.61,55733,9.56,73732.0,-2.23,-28.97,-29.17,0,*5D
1516910900.89,55734,9.63,73732.3,-2.21,-28.47,-28.75,0,*50
1516910902.14,55735,9.63,73728.3,-2.23,-28.47,-28.79,0,*5F
1516910903.34,55736,9.56,73728.0,-2.23,-28.53,-28.97,0,*59
1516910904.6,55737,9.56,73734.8,-2.23,-28.47,-28.79,0,*5D
1516910905.81,55738,9.56,73734.0,-2.23,-28.37,-28.69,0,*54
1516910907.06,55739,9.56,73732.5,-2.21,-28.31,-28.75,0,*5C
1516910908.35,55740,9.63,73742.3,-2.21,-28.21,-28.59,0,*5D